#timestamp,LO_Frequency,Hit 
1504440015.7,286047004.2,N
1504440035.5,286047002.0,N
1504440055.3,286047001.7,N
1504440075.2,286047002.8,N
1504440095.0,286047002.8,N
1504440095.9,286047002.8,N
1504440115.7,286047001.4,N
1504440135.6,286047004.1,P
1504440155.4,286046998.1,N
1504440175.2,286046998.1,N
1504440195.1,286047001.1,N
1504440196.0,286047001.1,N
1504440215.8,286046998.7,N
1504440235.6,286046998.2,N
1504440255.5,286046998.6,N
1504440275.3,286047002.5,N
1504440295.1,286046999.9,N
1504440315.9,286047000.7,N
1504440335.7,286046999.3,N
1504440355.5,286046996.6,N
1504440375.4,286046998.3,N
1504440395.2,286047000.6,N
1504440415.0,286047002.1,N
1504440415.9,286047002.1,N
1504440435.8,286047000.2,N
1504440455.6,286046998.2,N
1504440475.4,286046999.2,N
1504440495.2,286046996.8,N
1504440515.1,286046997.5,N
1504440516.0,286046997.5,N
1504440535.8,286046998.8,N
1504440555.6,286046998.2,N
1504440575.5,286046999.4,N
1504440595.3,286046996.7,N
1504440615.1,286046998.4,N
1504440635.9,286046996.6,N
1504440655.7,286046997.2,N
1504440675.5,286046995.3,N
1504440695.4,286046997.0,N
1504440715.2,286046997.2,N
1504440735.0,286046998.0,N
1504440735.9,286046998.0,N
1504440755.8,286046997.4,N
1504440775.6,286046997.5,N
1504440795.4,286046997.3,N
1504440815.2,286046996.5,N
1504440835.1,286046995.9,N
1504440836.0,286046995.9,N
1504440855.8,286046995.7,N
1504440875.6,286046995.9,N
1504440895.5,286046995.1,N
1504440915.3,286046996.3,N
1504440935.1,286046993.7,P
1504440955.9,286046996.6,N
1504440975.7,286046995.8,N
1504440995.5,286046997.7,N
1504441015.4,286046997.0,N
1504441035.2,286046996.9,N
1504441055.0,286046996.8,N
1504441055.9,286046996.8,N
1504441075.8,286046999.2,N
1504441095.6,286046996.3,N
1504441115.4,286046997.8,N
1504441135.3,286046997.8,N
1504441155.1,286046994.9,P
1504441175.8,286046999.7,N
1504441195.7,286046998.7,N
1504441215.5,286046998.3,N
1504441235.3,286047000.7,N
1504441255.2,286047001.2,N
1504441275.9,286046997.7,N
1504441295.7,286046995.5,N
1504441315.6,286046995.8,N
1504441335.4,286046993.9,N
1504441355.2,286046996.3,N
1504441375.0,286046995.4,N
1504441376.0,286046995.4,N
1504441395.8,286046995.0,N
1504441415.6,286046995.2,N
1504441435.4,286046998.0,N
1504441455.3,286046996.0,N
1504441475.1,286046995.9,N
1504441495.8,286046997.0,N
1504441515.7,286046997.0,N
1504441535.5,286046998.4,N
1504441555.3,286046997.2,N
1504441575.2,286046995.9,N
1504441595.9,286046996.6,N
1504441615.7,286046996.6,N
1504441635.6,286046996.8,N
1504441655.4,286046997.0,N
1504441675.2,286046997.4,N
1504441695.0,286046998.9,N
1504441696.0,286046998.9,N
1504441715.8,286046996.6,N
1504441735.6,286046995.2,N
1504441755.5,286046994.9,P
1504441775.3,286046998.3,N
1504441795.1,286046997.8,N
1504441815.9,286046997.6,N
1504441835.7,286046997.2,N
1504441855.5,286046993.4,P
1504441875.4,286046998.3,N
1504441895.2,286047001.1,N
1504441915.0,286047000.8,N
1504441915.9,286047000.8,N
1504441935.8,286046999.5,N
1504441955.6,286046998.9,N
1504441975.4,286046999.2,N
1504441995.2,286046999.6,N
1504442015.1,286046998.7,N
1504442016.0,286046998.7,N
1504442035.8,286047001.0,N
1504442055.6,286047002.4,N
1504442075.5,286047001.4,N
1504442095.3,286046998.8,N
1504442115.1,286047000.5,N
1504442135.9,286046998.6,N
1504442155.7,286046997.4,N
1504442175.5,286046997.0,N
1504442195.4,286046996.6,N
1504442215.2,286046996.5,N
1504442235.0,286046998.6,N
1504442235.9,286046998.6,N
1504442255.8,286046996.7,N
1504442275.6,286046995.7,N
1504442295.4,286046996.1,N
1504442315.2,286046995.0,N
1504442335.1,286046995.0,N
1504442336.0,286046995.0,N
1504442355.8,286046998.0,N
1504442375.6,286046995.8,N
1504442395.5,286046994.9,N
1504442415.3,286046994.1,N
1504442435.1,286046991.9,P
1504442455.9,286046994.0,N
1504442475.7,286046994.1,N
1504442495.5,286046996.7,N
1504442515.4,286046995.9,N
1504442535.2,286046993.5,P
1504442555.0,286047002.4,N
1504442555.9,286047002.4,N
1504442575.8,286047000.9,N
1504442595.6,286047002.6,N
1504442615.4,286047000.8,N
1504442635.3,286046998.4,N
1504442655.1,286047000.3,N
1504442675.8,286046998.9,N
1504442695.7,286047000.8,N
1504442715.5,286046998.3,N
1504442735.3,286047000.2,N
1504442755.2,286046999.8,N
1504442775.9,286047002.3,N
1504442795.7,286047001.1,N
1504442815.6,286047000.8,N
1504442835.4,286046998.5,N
1504442855.2,286046999.4,N
1504442875.0,286046998.8,N
1504442875.9,286046998.8,N
1504442895.8,286047001.9,N
1504442915.6,286047002.5,N
1504442935.4,286047002.6,N
1504442955.3,286047000.3,N
1504442975.1,286046998.5,N
1504442976.0,286046998.5,N
1504442995.8,286047001.2,N
1504443015.7,286047001.0,N
1504443035.5,286046999.9,N
1504443055.3,286047000.4,N
1504443075.2,286047000.6,N
1504443095.9,286046999.4,N
1504443115.7,286046998.9,N
1504443135.5,286046998.5,N
1504443155.4,286046999.1,N
1504443175.2,286046998.3,N
1504443195.0,286047000.9,N
1504443195.9,286047000.9,N
1504443215.8,286047000.3,N
1504443235.6,286046999.1,N
1504443255.4,286046998.4,N
1504443275.3,286047000.9,N
1504443295.1,286047000.2,N
1504443315.8,286047001.8,N
1504443335.7,286047000.3,N
1504443355.5,286047000.4,N
1504443375.3,286047002.7,N
1504443395.2,286047002.4,N
1504443415.9,286047002.6,N
1504443435.7,286047000.3,N
1504443455.6,286047000.3,N
1504443475.4,286047000.7,N
1504443495.2,286047000.0,N
1504443515.0,286047000.0,N
1504443516.0,286047000.0,N
1504443535.8,286047004.3,P
1504443555.6,286046999.8,N
1504443575.5,286046999.9,N
1504443595.3,286047000.1,N
